Time,TemperatureF,DewpointF,PressureIn,WindDirection,WindDirectionDegrees,WindSpeedMPH,WindSpeedGustMPH,Humidity,HourlyPrecipIn,Conditions,Clouds,dailyrainin,SoftwareType,DateUTC
2017-08-23 00:03:00,59.8,53.3,29.94,WSW,249,0.0,0.0,79,0.00,,,0.00,Wunderground v.1.13,2017-08-23 05:03:00,
2017-08-23 00:09:00,59.7,53.2,29.95,WSW,244,0.0,0.0,79,0.00,,,0.00,Wunderground v.1.13,2017-08-23 05:09:00,
2017-08-23 00:14:00,59.6,53.4,29.95,WSW,247,0.0,0.0,80,0.00,,,0.00,Wunderground v.1.13,2017-08-23 05:14:00,
2017-08-23 00:20:00,59.5,53.3,29.95,WSW,246,0.0,0.0,80,0.00,,,0.00,Wunderground v.1.13,2017-08-23 05:20:00,
2017-08-23 00:26:00,59.4,53.2,29.95,WSW,248,2.0,2.0,80,0.00,,,0.00,Wunderground v.1.13,2017-08-23 05:26:00,
2017-08-23 00:32:00,59.3,53.1,29.95,WSW,243,1.0,1.0,80,0.00,,,0.00,Wunderground v.1.13,2017-08-23 05:32:00,
2017-08-23 00:38:00,59.3,53.1,29.95,West,265,0.0,0.0,80,0.00,,,0.00,Wunderground v.1.13,2017-08-23 05:38:00,
2017-08-23 00:44:00,59.2,53.0,29.95,West,265,0.0,0.0,80,0.00,,,0.00,Wunderground v.1.13,2017-08-23 05:44:00,
2017-08-23 00:49:00,59.1,53.3,29.95,WSW,250,0.0,0.0,81,0.00,,,0.00,Wunderground v.1.13,2017-08-23 05:49:00,
2017-08-23 00:54:00,59.0,53.2,29.95,SW,219,0.0,0.0,81,0.00,,,0.00,Wunderground v.1.13,2017-08-23 05:54:00,
2017-08-23 01:00:00,59.0,53.2,29.95,SW,236,0.0,0.0,81,0.00,,,0.00,Wunderground v.1.13,2017-08-23 06:00:00,
2017-08-23 01:05:00,59.0,53.2,29.95,WSW,241,0.0,0.0,81,0.00,,,0.00,Wunderground v.1.13,2017-08-23 06:05:00,
2017-08-23 01:11:00,59.0,53.2,29.95,WSW,241,0.0,0.0,81,0.00,,,0.00,Wunderground v.1.13,2017-08-23 06:11:00,
2017-08-23 01:16:00,59.0,53.2,29.95,WSW,241,0.0,0.0,81,0.00,,,0.00,Wunderground v.1.13,2017-08-23 06:16:00,
2017-08-23 01:22:00,59.0,53.2,29.95,SW,236,0.0,0.0,81,0.00,,,0.00,Wunderground v.1.13,2017-08-23 06:22:00,
2017-08-23 01:28:00,58.8,53.0,29.95,SW,236,0.0,0.0,81,0.00,,,0.00,Wunderground v.1.13,2017-08-23 06:28:00,
2017-08-23 01:34:00,58.7,52.9,29.95,WSW,239,0.0,0.0,81,0.00,,,0.00,Wunderground v.1.13,2017-08-23 06:34:00,
2017-08-23 01:40:00,58.5,53.0,29.95,WSW,239,0.0,0.0,82,0.00,,,0.00,Wunderground v.1.13,2017-08-23 06:40:00,
2017-08-23 01:46:00,58.3,52.8,29.95,WSW,239,0.0,0.0,82,0.00,,,0.00,Wunderground v.1.13,2017-08-23 06:46:00,
2017-08-23 01:52:00,58.2,52.7,29.95,WSW,246,0.0,2.0,82,0.00,,,0.00,Wunderground v.1.13,2017-08-23 06:52:00,
2017-08-23 01:58:00,58.2,52.7,29.95,WSW,246,0.0,0.0,82,0.00,,,0.00,Wunderground v.1.13,2017-08-23 06:58:00,
2017-08-23 02:04:00,58.1,52.6,29.95,WSW,246,0.0,0.0,82,0.00,,,0.00,Wunderground v.1.13,2017-08-23 07:04:00,
2017-08-23 02:09:00,58.0,52.9,29.95,WSW,250,0.0,0.0,83,0.00,,,0.00,Wunderground v.1.13,2017-08-23 07:09:00,
2017-08-23 02:19:00,57.9,52.8,29.95,NW,309,0.0,0.0,83,0.00,,,0.00,Wunderground v.1.13,2017-08-23 07:19:00,
2017-08-23 02:24:00,57.8,52.7,29.95,NW,309,0.0,0.0,83,0.00,,,0.00,Wunderground v.1.13,2017-08-23 07:24:00,
2017-08-23 02:29:00,57.7,52.6,29.95,NW,309,0.0,0.0,83,0.00,,,0.00,Wunderground v.1.13,2017-08-23 07:29:00,
2017-08-23 02:34:00,57.6,52.5,29.95,NW,309,0.0,0.0,83,0.00,,,0.00,Wunderground v.1.13,2017-08-23 07:34:00,
2017-08-23 02:39:00,57.5,52.7,29.95,NW,309,0.0,0.0,84,0.00,,,0.00,Wunderground v.1.13,2017-08-23 07:39:00,
2017-08-23 02:44:00,57.4,52.6,29.95,NW,309,0.0,0.0,84,0.00,,,0.00,Wunderground v.1.13,2017-08-23 07:44:00,
2017-08-23 02:49:00,57.3,52.5,29.95,NW,309,0.0,0.0,84,0.00,,,0.00,Wunderground v.1.13,2017-08-23 07:49:00,
2017-08-23 02:54:00,57.2,52.4,29.95,NW,309,0.0,0.0,84,0.00,,,0.00,Wunderground v.1.13,2017-08-23 07:54:00,
2017-08-23 02:59:00,57.1,52.3,29.95,WNW,298,0.0,0.0,84,0.00,,,0.00,Wunderground v.1.13,2017-08-23 07:59:00,
2017-08-23 03:04:00,57.0,52.5,29.95,WNW,290,0.0,1.0,85,0.00,,,0.00,Wunderground v.1.13,2017-08-23 08:04:00,
2017-08-23 03:09:00,56.9,52.4,29.95,WNW,290,0.0,0.0,85,0.00,,,0.00,Wunderground v.1.13,2017-08-23 08:09:00,
2017-08-23 03:14:00,56.8,52.3,29.95,WNW,290,0.0,1.0,85,0.00,,,0.00,Wunderground v.1.13,2017-08-23 08:14:00,
2017-08-23 03:19:00,56.7,52.2,29.95,WNW,287,0.0,0.0,85,0.00,,,0.00,Wunderground v.1.13,2017-08-23 08:19:00,
2017-08-23 03:24:00,56.6,52.1,29.95,WNW,287,0.0,0.0,85,0.00,,,0.00,Wunderground v.1.13,2017-08-23 08:24:00,
2017-08-23 03:29:00,56.5,52.0,29.95,WNW,287,0.0,0.0,85,0.00,,,0.00,Wunderground v.1.13,2017-08-23 08:29:00,
2017-08-23 03:34:00,56.4,51.9,29.95,WNW,287,0.0,0.0,85,0.00,,,0.00,Wunderground v.1.13,2017-08-23 08:34:00,
2017-08-23 03:39:00,56.4,51.9,29.95,WNW,287,0.0,0.0,85,0.00,,,0.00,Wunderground v.1.13,2017-08-23 08:39:00,
2017-08-23 03:44:00,56.3,52.2,29.95,WNW,287,0.0,0.0,86,0.00,,,0.00,Wunderground v.1.13,2017-08-23 08:44:00,
2017-08-23 03:49:00,56.2,52.1,29.95,WNW,287,0.0,0.0,86,0.00,,,0.00,Wunderground v.1.13,2017-08-23 08:49:00,
2017-08-23 03:55:00,56.1,52.0,29.95,WNW,287,0.0,0.0,86,0.00,,,0.00,Wunderground v.1.13,2017-08-23 08:55:00,
2017-08-23 04:00:00,56.0,51.9,29.95,WNW,287,0.0,0.0,86,0.00,,,0.00,Wunderground v.1.13,2017-08-23 09:00:00,
2017-08-23 04:05:00,55.9,51.8,29.95,West,281,0.0,0.0,86,0.00,,,0.00,Wunderground v.1.13,2017-08-23 09:05:00,
2017-08-23 04:10:00,55.9,51.8,29.95,West,281,0.0,0.0,86,0.00,,,0.00,Wunderground v.1.13,2017-08-23 09:10:00,
2017-08-23 04:15:00,55.8,51.7,29.95,WSW,250,0.0,0.0,86,0.00,,,0.00,Wunderground v.1.13,2017-08-23 09:15:00,
2017-08-23 04:20:00,55.8,51.7,29.95,WSW,250,0.0,0.0,86,0.00,,,0.00,Wunderground v.1.13,2017-08-23 09:20:00,
2017-08-23 04:25:00,55.7,51.6,29.95,WSW,250,0.0,0.0,86,0.00,,,0.00,Wunderground v.1.13,2017-08-23 09:25:00,
2017-08-23 04:30:00,55.6,51.5,29.95,WSW,250,0.0,0.0,86,0.00,,,0.00,Wunderground v.1.13,2017-08-23 09:30:00,
2017-08-23 04:35:00,55.5,51.7,29.95,WSW,250,0.0,0.0,87,0.00,,,0.00,Wunderground v.1.13,2017-08-23 09:35:00,
2017-08-23 04:40:00,55.5,51.7,29.95,WSW,250,0.0,0.0,87,0.00,,,0.00,Wunderground v.1.13,2017-08-23 09:40:00,
2017-08-23 04:45:00,55.5,51.7,29.95,WSW,245,0.0,0.0,87,0.00,,,0.00,Wunderground v.1.13,2017-08-23 09:45:00,
2017-08-23 04:50:00,55.4,51.6,29.95,SW,236,0.0,0.0,87,0.00,,,0.00,Wunderground v.1.13,2017-08-23 09:50:00,
2017-08-23 04:55:00,55.4,51.6,29.95,SW,232,0.0,0.0,87,0.00,,,0.00,Wunderground v.1.13,2017-08-23 09:55:00,
2017-08-23 05:00:00,55.4,51.6,29.95,West,270,0.0,0.0,87,0.00,,,0.00,Wunderground v.1.13,2017-08-23 10:00:00,
2017-08-23 05:05:00,55.3,51.5,29.95,SW,217,0.0,0.0,87,0.00,,,0.00,Wunderground v.1.13,2017-08-23 10:05:00,
2017-08-23 05:10:00,55.3,51.5,29.95,West,265,0.0,0.0,87,0.00,,,0.00,Wunderground v.1.13,2017-08-23 10:10:00,
2017-08-23 05:15:00,55.3,51.5,29.95,WSW,242,0.0,0.0,87,0.00,,,0.00,Wunderground v.1.13,2017-08-23 10:15:00,
2017-08-23 05:20:00,55.2,51.4,29.95,WSW,242,0.0,0.0,87,0.00,,,0.00,Wunderground v.1.13,2017-08-23 10:20:00,
2017-08-23 05:25:00,55.2,51.4,29.96,West,274,0.0,0.0,87,0.00,,,0.00,Wunderground v.1.13,2017-08-23 10:25:00,
2017-08-23 05:30:00,55.3,51.5,29.95,WSW,240,0.0,0.0,87,0.00,,,0.00,Wunderground v.1.13,2017-08-23 10:30:00,
2017-08-23 05:35:00,55.3,51.5,29.96,WSW,244,0.0,0.0,87,0.00,,,0.00,Wunderground v.1.13,2017-08-23 10:35:00,
2017-08-23 05:40:00,55.4,51.6,29.96,WSW,248,0.0,0.0,87,0.00,,,0.00,Wunderground v.1.13,2017-08-23 10:40:00,
2017-08-23 05:45:00,55.4,51.6,29.96,West,273,0.0,0.0,87,0.00,,,0.00,Wunderground v.1.13,2017-08-23 10:45:00,
2017-08-23 05:50:00,55.4,51.6,29.96,NW,304,0.0,0.0,87,0.00,,,0.00,Wunderground v.1.13,2017-08-23 10:50:00,
2017-08-23 05:55:00,55.3,51.5,29.96,NW,317,0.0,0.0,87,0.00,,,0.00,Wunderground v.1.13,2017-08-23 10:55:00,
2017-08-23 06:00:00,55.3,51.5,29.96,NNW,331,0.0,1.0,87,0.00,,,0.00,Wunderground v.1.13,2017-08-23 11:00:00,
2017-08-23 06:05:00,55.4,51.6,29.96,NNW,328,0.0,0.0,87,0.00,,,0.00,Wunderground v.1.13,2017-08-23 11:05:00,
2017-08-23 06:10:00,55.4,51.6,29.96,NNW,327,0.0,0.0,87,0.00,,,0.00,Wunderground v.1.13,2017-08-23 11:10:00,
2017-08-23 06:15:00,55.4,51.6,29.96,NNW,332,0.0,0.0,87,0.00,,,0.00,Wunderground v.1.13,2017-08-23 11:15:00,
2017-08-23 06:20:00,55.4,51.6,29.96,WNW,292,0.0,0.0,87,0.00,,,0.00,Wunderground v.1.13,2017-08-23 11:20:00,
2017-08-23 06:25:00,55.5,51.7,29.96,WNW,288,0.0,0.0,87,0.00,,,0.00,Wunderground v.1.13,2017-08-23 11:25:00,
2017-08-23 06:30:00,55.5,51.7,29.97,WNW,288,0.0,0.0,87,0.00,,,0.00,Wunderground v.1.13,2017-08-23 11:30:00,
2017-08-23 06:35:00,55.5,51.7,29.97,WNW,288,0.0,0.0,87,0.00,,,0.00,Wunderground v.1.13,2017-08-23 11:35:00,
2017-08-23 06:40:00,55.5,51.7,29.97,WNW,286,0.0,0.0,87,0.00,,,0.00,Wunderground v.1.13,2017-08-23 11:40:00,
2017-08-23 06:45:00,55.6,51.8,29.97,WNW,288,0.0,0.0,87,0.00,,,0.00,Wunderground v.1.13,2017-08-23 11:45:00,
2017-08-23 06:50:00,55.6,51.8,29.97,WNW,288,0.0,0.0,87,0.00,,,0.00,Wunderground v.1.13,2017-08-23 11:50:00,
2017-08-23 06:55:00,55.7,51.9,29.97,WSW,249,0.0,0.0,87,0.00,,,0.00,Wunderground v.1.13,2017-08-23 11:55:00,
2017-08-23 07:00:00,55.9,52.1,29.97,WSW,249,0.0,0.0,87,0.00,,,0.00,Wunderground v.1.13,2017-08-23 12:00:00,
2017-08-23 07:05:00,56.0,52.2,29.97,WNW,284,0.0,0.0,87,0.00,,,0.00,Wunderground v.1.13,2017-08-23 12:05:00,
2017-08-23 07:10:00,56.3,52.8,29.98,NW,306,0.0,0.0,88,0.00,,,0.00,Wunderground v.1.13,2017-08-23 12:10:00,
2017-08-23 07:15:00,56.6,52.8,29.98,NW,318,0.0,2.0,87,0.00,,,0.00,Wunderground v.1.13,2017-08-23 12:15:00,
2017-08-23 07:20:00,56.8,53.0,29.98,NW,315,0.0,0.0,87,0.00,,,0.00,Wunderground v.1.13,2017-08-23 12:20:00,
2017-08-23 07:25:00,57.2,53.4,29.98,NW,320,0.0,1.0,87,0.00,,,0.00,Wunderground v.1.13,2017-08-23 12:25:00,
2017-08-23 07:30:00,57.5,53.3,29.98,NW,319,0.0,1.0,86,0.00,,,0.00,Wunderground v.1.13,2017-08-23 12:30:00,
2017-08-23 07:35:00,57.9,53.7,29.98,NW,318,0.0,0.0,86,0.00,,,0.00,Wunderground v.1.13,2017-08-23 12:35:00,
2017-08-23 07:40:00,58.3,54.1,29.98,NW,325,0.0,1.0,86,0.00,,,0.00,Wunderground v.1.13,2017-08-23 12:40:00,
2017-08-23 07:45:00,58.9,54.4,29.98,NW,321,0.0,0.0,85,0.00,,,0.00,Wunderground v.1.13,2017-08-23 12:45:00,
2017-08-23 07:50:00,59.1,54.6,29.98,NW,324,0.0,1.0,85,0.00,,,0.00,Wunderground v.1.13,2017-08-23 12:50:00,
2017-08-23 07:55:00,59.7,54.9,29.98,WSW,244,0.0,3.0,84,0.00,,,0.00,Wunderground v.1.13,2017-08-23 12:55:00,
2017-08-23 08:00:00,60.2,55.0,29.98,SW,222,0.0,0.0,83,0.00,,,0.00,Wunderground v.1.13,2017-08-23 13:00:00,
2017-08-23 08:06:00,60.7,55.2,29.98,WNW,302,0.0,1.0,82,0.00,,,0.00,Wunderground v.1.13,2017-08-23 13:06:00,
2017-08-23 08:11:00,61.2,55.3,29.98,WSW,253,0.0,0.0,81,0.00,,,0.00,Wunderground v.1.13,2017-08-23 13:11:00,
2017-08-23 08:16:00,61.7,55.5,29.98,NNW,333,0.0,1.0,80,0.00,,,0.00,Wunderground v.1.13,2017-08-23 13:16:00,
2017-08-23 08:21:00,62.1,55.5,29.98,NNW,329,0.0,0.0,79,0.00,,,0.00,Wunderground v.1.13,2017-08-23 13:21:00,
2017-08-23 08:26:00,62.5,55.5,29.98,NW,317,3.0,3.0,78,0.00,,,0.00,Wunderground v.1.13,2017-08-23 13:26:00,
2017-08-23 08:31:00,62.8,55.5,29.98,WNW,288,0.0,1.0,77,0.00,,,0.00,Wunderground v.1.13,2017-08-23 13:31:00,
2017-08-23 08:36:00,63.2,55.9,29.98,NNW,329,0.0,1.0,77,0.00,,,0.00,Wunderground v.1.13,2017-08-23 13:36:00,
2017-08-23 08:41:00,63.5,55.8,29.98,NNW,341,0.0,3.0,76,0.00,,,0.00,Wunderground v.1.13,2017-08-23 13:41:00,
2017-08-23 08:46:00,63.8,55.7,29.98,WNW,301,2.0,2.0,75,0.00,,,0.00,Wunderground v.1.13,2017-08-23 13:46:00,
2017-08-23 08:51:00,64.1,55.6,29.98,NW,326,0.0,5.0,74,0.00,,,0.00,Wunderground v.1.13,2017-08-23 13:51:00,
2017-08-23 08:56:00,64.4,55.9,29.98,NW,310,0.0,4.0,74,0.00,,,0.00,Wunderground v.1.13,2017-08-23 13:56:00,
2017-08-23 09:01:00,64.5,55.3,29.98,NW,322,5.0,11.0,72,0.00,,,0.00,Wunderground v.1.13,2017-08-23 14:01:00,
2017-08-23 09:06:00,64.5,55.3,29.98,NE,49,3.0,6.0,72,0.00,,,0.00,Wunderground v.1.13,2017-08-23 14:06:00,
2017-08-23 09:11:00,64.5,55.7,29.98,NW,311,0.0,5.0,73,0.00,,,0.00,Wunderground v.1.13,2017-08-23 14:11:00,
2017-08-23 09:16:00,64.7,55.8,29.98,North,5,0.0,7.0,73,0.00,,,0.00,Wunderground v.1.13,2017-08-23 14:16:00,
2017-08-23 09:22:00,64.9,56.0,29.98,NW,322,0.0,5.0,73,0.00,,,0.00,Wunderground v.1.13,2017-08-23 14:22:00,
2017-08-23 09:27:00,65.3,56.4,29.98,North,350,0.0,4.0,73,0.00,,,0.00,Wunderground v.1.13,2017-08-23 14:27:00,
2017-08-23 09:32:00,65.7,56.8,29.98,North,355,0.0,3.0,73,0.00,,,0.00,Wunderground v.1.13,2017-08-23 14:32:00,
2017-08-23 09:37:00,66.1,56.8,29.98,NW,316,6.0,6.0,72,0.00,,,0.00,Wunderground v.1.13,2017-08-23 14:37:00,
2017-08-23 09:42:00,66.3,56.6,29.98,WNW,295,2.0,8.0,71,0.00,,,0.00,Wunderground v.1.13,2017-08-23 14:42:00,
2017-08-23 09:47:00,66.5,56.8,29.98,NNW,332,0.0,9.0,71,0.00,,,0.00,Wunderground v.1.13,2017-08-23 14:47:00,
2017-08-23 09:52:00,66.7,56.6,29.98,West,281,0.0,4.0,70,0.00,,,0.00,Wunderground v.1.13,2017-08-23 14:52:00,
2017-08-23 09:57:00,67.2,57.5,29.98,NW,316,0.0,4.0,71,0.00,,,0.00,Wunderground v.1.13,2017-08-23 14:57:00,
2017-08-23 10:02:00,67.6,57.1,29.98,West,263,0.0,2.0,69,0.00,,,0.00,Wunderground v.1.13,2017-08-23 15:02:00,
2017-08-23 10:07:00,68.0,57.0,29.98,WNW,296,0.0,6.0,68,0.00,,,0.00,Wunderground v.1.13,2017-08-23 15:07:00,
2017-08-23 10:12:00,68.2,56.8,29.98,NNW,340,1.0,6.0,67,0.00,,,0.00,Wunderground v.1.13,2017-08-23 15:12:00,
2017-08-23 10:17:00,68.1,56.7,29.98,WNW,296,0.0,9.0,67,0.00,,,0.00,Wunderground v.1.13,2017-08-23 15:17:00,
2017-08-23 10:22:00,68.1,56.3,29.99,NNW,336,0.0,8.0,66,0.00,,,0.00,Wunderground v.1.13,2017-08-23 15:22:00,
2017-08-23 10:27:00,68.2,56.8,29.99,NW,304,0.0,10.0,67,0.00,,,0.00,Wunderground v.1.13,2017-08-23 15:27:00,
2017-08-23 10:32:00,68.3,56.1,29.99,NNW,332,6.0,9.0,65,0.00,,,0.00,Wunderground v.1.13,2017-08-23 15:32:00,
2017-08-23 10:37:00,68.4,56.6,29.99,North,5,3.0,10.0,66,0.00,,,0.00,Wunderground v.1.13,2017-08-23 15:37:00,
2017-08-23 10:42:00,68.4,56.2,29.99,North,5,3.0,8.0,65,0.00,,,0.00,Wunderground v.1.13,2017-08-23 15:42:00,
2017-08-23 10:47:00,68.6,56.8,29.99,WNW,298,4.0,11.0,66,0.00,,,0.00,Wunderground v.1.13,2017-08-23 15:47:00,
2017-08-23 10:52:00,69.0,56.7,29.99,NNE,15,7.0,7.0,65,0.00,,,0.00,Wunderground v.1.13,2017-08-23 15:52:00,
2017-08-23 10:57:00,69.2,56.5,29.99,NNW,331,0.0,11.0,64,0.00,,,0.00,Wunderground v.1.13,2017-08-23 15:57:00,
2017-08-23 11:02:00,69.5,56.3,29.99,SW,215,3.0,6.0,63,0.00,,,0.00,Wunderground v.1.13,2017-08-23 16:02:00,
2017-08-23 11:07:00,69.8,56.6,29.99,WNW,302,0.0,11.0,63,0.00,,,0.00,Wunderground v.1.13,2017-08-23 16:07:00,
2017-08-23 11:12:00,70.2,57.0,29.99,NW,319,3.0,5.0,63,0.00,,,0.00,Wunderground v.1.13,2017-08-23 16:12:00,
2017-08-23 11:17:00,70.2,56.6,29.99,NW,311,0.0,8.0,62,0.00,,,0.00,Wunderground v.1.13,2017-08-23 16:17:00,
2017-08-23 11:22:00,70.1,56.0,29.99,WSW,257,3.0,9.0,61,0.00,,,0.00,Wunderground v.1.13,2017-08-23 16:22:00,
2017-08-23 11:27:00,70.5,56.9,29.99,WNW,285,0.0,5.0,62,0.00,,,0.00,Wunderground v.1.13,2017-08-23 16:27:00,
2017-08-23 11:32:00,70.7,57.0,29.99,NNW,348,6.0,6.0,62,0.00,,,0.00,Wunderground v.1.13,2017-08-23 16:32:00,
2017-08-23 11:37:00,70.7,56.1,29.99,NW,325,0.0,5.0,60,0.00,,,0.00,Wunderground v.1.13,2017-08-23 16:37:00,
2017-08-23 11:42:00,70.8,55.8,29.99,ENE,59,0.0,11.0,59,0.00,,,0.00,Wunderground v.1.13,2017-08-23 16:42:00,
2017-08-23 11:47:00,71.2,56.1,29.99,NNW,334,0.0,3.0,59,0.00,,,0.00,Wunderground v.1.13,2017-08-23 16:47:00,
2017-08-23 11:52:00,71.6,57.4,29.99,WSW,251,1.0,8.0,61,0.00,,,0.00,Wunderground v.1.13,2017-08-23 16:52:00,
2017-08-23 11:57:00,71.6,56.0,29.99,South,188,1.0,5.0,58,0.00,,,0.00,Wunderground v.1.13,2017-08-23 16:57:00,
2017-08-23 12:02:00,71.7,56.1,29.99,NW,325,9.0,9.0,58,0.00,,,0.00,Wunderground v.1.13,2017-08-23 17:02:00,
2017-08-23 12:07:00,71.5,56.4,29.99,North,350,0.0,4.0,59,0.00,,,0.00,Wunderground v.1.13,2017-08-23 17:07:00,
2017-08-23 12:13:00,71.1,56.5,29.99,West,264,1.0,7.0,60,0.00,,,0.00,Wunderground v.1.13,2017-08-23 17:13:00,
2017-08-23 12:19:00,71.0,55.9,29.99,NNW,340,5.0,12.0,59,0.00,,,0.00,Wunderground v.1.13,2017-08-23 17:19:00,
2017-08-23 12:24:00,71.2,56.1,29.99,NW,322,0.0,10.0,59,0.00,,,0.00,Wunderground v.1.13,2017-08-23 17:24:00,
2017-08-23 12:29:00,71.7,57.1,29.99,North,355,0.0,12.0,60,0.00,,,0.00,Wunderground v.1.13,2017-08-23 17:29:00,
2017-08-23 12:34:00,72.5,56.9,29.99,WNW,286,6.0,9.0,58,0.00,,,0.00,Wunderground v.1.13,2017-08-23 17:34:00,
2017-08-23 12:39:00,72.7,56.6,29.99,NNW,327,0.0,8.0,57,0.00,,,0.00,Wunderground v.1.13,2017-08-23 17:39:00,
2017-08-23 12:44:00,72.7,56.6,29.99,NNW,343,1.0,8.0,57,0.00,,,0.00,Wunderground v.1.13,2017-08-23 17:44:00,
2017-08-23 12:49:00,72.8,56.7,29.98,West,269,0.0,8.0,57,0.00,,,0.00,Wunderground v.1.13,2017-08-23 17:49:00,
2017-08-23 12:54:00,72.6,56.5,29.98,WNW,300,0.0,7.0,57,0.00,,,0.00,Wunderground v.1.13,2017-08-23 17:54:00,
2017-08-23 12:59:00,73.1,57.0,29.99,West,280,0.0,6.0,57,0.00,,,0.00,Wunderground v.1.13,2017-08-23 17:59:00,
2017-08-23 13:04:00,73.0,56.4,29.98,NW,321,0.0,11.0,56,0.00,,,0.00,Wunderground v.1.13,2017-08-23 18:04:00,
2017-08-23 13:09:00,73.0,56.4,29.98,West,272,3.0,11.0,56,0.00,,,0.00,Wunderground v.1.13,2017-08-23 18:09:00,
2017-08-23 13:14:00,73.0,56.9,29.98,NW,315,4.0,6.0,57,0.00,,,0.00,Wunderground v.1.13,2017-08-23 18:14:00,
2017-08-23 13:19:00,73.2,57.1,29.98,NW,317,4.0,10.0,57,0.00,,,0.00,Wunderground v.1.13,2017-08-23 18:19:00,
2017-08-23 13:24:00,72.7,56.6,29.98,West,276,1.0,4.0,57,0.00,,,0.00,Wunderground v.1.13,2017-08-23 18:24:00,
2017-08-23 13:29:00,72.7,56.1,29.98,WNW,298,0.0,11.0,56,0.00,,,0.00,Wunderground v.1.13,2017-08-23 18:29:00,
2017-08-23 13:34:00,73.3,57.1,29.98,NNW,332,2.0,9.0,57,0.00,,,0.00,Wunderground v.1.13,2017-08-23 18:34:00,
2017-08-23 13:39:00,73.9,56.7,29.98,NW,324,6.0,13.0,55,0.00,,,0.00,Wunderground v.1.13,2017-08-23 18:39:00,